Overview Statistics Trail Chart Weather Telemetry Raw packets
 

This is the latest recevied weather packets stored in our database for station/object 4S6DRJ-13. If no packets are shown the sender has not sent any weather packets the latest 10 day(s).

<< 189 190 191 192 193 194 195 >>
Time Temp. Humidity Pressure Rain* Wind** Luminosity Snow
1788183541 28.89° C 79% 1008.2 hPa 0 mm 0.89 m/s, 250° 0 W/m² -
1788183480 28.89° C 79% 1008.4 hPa 0 mm 1.34 m/s, 193° 0 W/m² -
1788183419 28.89° C 79% 1008.2 hPa 0 mm 0.89 m/s, 226° 0 W/m² -
1788183358 28.89° C 79% 1008.2 hPa 0 mm 0.89 m/s, 239° 0 W/m² -
1788183297 28.89° C 79% 1008 hPa 0 mm 0.45 m/s, 317° 0 W/m² -
1788183236 28.89° C 79% 1008.2 hPa 0 mm 0.89 m/s, 201° 0 W/m² -
1788183175 28.89° C 79% 1008.3 hPa 0 mm 0.89 m/s, 262° 0 W/m² -
1788183114 28.89° C 79% 1008.1 hPa 0 mm 0.89 m/s, 213° 0 W/m² -
1788183053 28.89° C 79% 1008.3 hPa 0 mm 0.89 m/s, 231° 0 W/m² -
1788182992 28.89° C 79% 1008 hPa 0 mm 0.89 m/s, 196° 0 W/m² -
1788182932 28.89° C 79% 1008.1 hPa 0 mm 1.34 m/s, 199° 0 W/m² -
1788182870 28.89° C 79% 1008.1 hPa 0 mm 1.34 m/s, 237° 0 W/m² -
1788182809 28.89° C 79% 1008.2 hPa 0 mm 2.24 m/s, 122° 0 W/m² -
1788182748 28.89° C 80% 1008.1 hPa 0 mm 1.34 m/s, 233° 0 W/m² -
1788182687 28.89° C 80% 1008.1 hPa 0 mm 0.45 m/s, 199° 0 W/m² -
1788182626 28.89° C 80% 1008 hPa 0 mm 1.79 m/s, 257° 0 W/m² -
1788182565 28.89° C 79% 1008.1 hPa 0 mm 1.79 m/s, 212° 0 W/m² -
1788182504 28.89° C 80% 1008.1 hPa 0 mm 1.34 m/s, 211° 0 W/m² -
1788182443 28.89° C 80% 1008.1 hPa 0 mm 1.34 m/s, 208° 0 W/m² -
1788182382 28.89° C 80% 1008 hPa 0 mm 1.34 m/s, 288° 0 W/m² -
1788182321 28.89° C 80% 1008.2 hPa 0 mm 1.34 m/s, 250° 0 W/m² -
1788182199 28.89° C 80% 1007.9 hPa 0 mm 0.89 m/s, 232° 0 W/m² -
1788182137 28.89° C 80% 1008.1 hPa 0 mm 0.89 m/s, 238° 0 W/m² -
1788182077 28.89° C 80% 1008.1 hPa 0 mm 0.45 m/s, 293° 0 W/m² -
1788182016 28.89° C 80% 1008.1 hPa 0 mm 0.45 m/s, 200° 0 W/m² -

* Rain latest hour (hover to see other rain measurements)
** Current wind speed in m/s (hover to see current wind gust speed)